Terminal Aerodrome Forecast
Issued by NWS Mt. Holly, NJ

Home | Current Version | Previous Version | Text Only | Print | Product List | Glossary On
Versions: 1 2 3 4 5 6 7 8 9 10 11 12 13 14 15 16 17 18 19 20 21 22 23 24 25 26 27 28 29
000
FTUS41 KPHI 261500 AAB
TAFILG
TAF AMD
KILG 261527Z 2615/2712 05020G30KT 3SM -SN BR BKN010 OVC025
      TEMPO 2615/2618 1 1/2SM -SN BR
     FM262200 04020G30KT 1SM -SN OVC006
     FM270200 02020G30KT 1/2SM SN OVC004=

USA.gov is the U.S. government's official web portal to all federal, state and local government web resources and services.